[[{"header":{"parameterUnit":"m.s-1","parameterCategory":1,"la1":30.2991,"la2":30.254,"lo1":-89.0895,"lo2":-89.0444,"dy":0.0017,"dx":0.0017,"nx":28,"ny":28,"refTime":"2023-04-26T15:00:00:Z","depth":0,"parameterNumber":2,"parameterNumberName":"U-component_of_WINDS"},"data":[0,0,0,0,0,0,0,0,0,0,0,0,0,0,0,0,0,0,0,0,0,0,0,0,0,0,0,0,0,0,0,0,0,0,0,0,0,0,0,0,0,0,0,0,0,0,0,0,0,0,0,0,0,0,0,0,0,0,-2.2297,-2.2298,0,-2.2354,-2.2355,-2.2355,-2.2293,-2.2291,-2.2288,-2.2286,-2.2343,-2.2347,-2.235,0,0,0,0,0,0,0,0,0,0,0,0,0,-2.2133,-2.2136,-2.2297,-2.2298,-2.2298,-2.2354,-2.2355,-2.2355,-2.2293,-2.2291,-2.2288,-2.2285,-2.2342,-2.2346,-2.2351,0,0,0,0,0,0,0,0,0,0,0,0,0,-2.2198,-2.2137,-2.2297,-2.2274,-2.2273,-2.2354,-2.2355,-2.2356,-2.2294,-2.2291,-2.2287,-2.2284,-2.234,-2.2346,-2.2351,-2.2457,0,0,-2.2368,-2.2371,0,0,0,0,0,0,0,0,-2.2195,-2.2204,-2.2277,-2.2276,-2.2274,-2.2313,-2.2317,-2.239,-2.2295,-2.2286,-2.2286,-2.2282,-2.2336,-2.2342,-2.236,-2.246,-2.2462,-2.2369,-2.2372,-2.2375,-2.2376,0,0,0,0,0,0,0,-2.219,-2.2202,-2.2319,-2.2278,-2.2276,-2.2261,-2.2266,-2.2331,-2.233,-2.2286,-2.2282,-2.229,-2.2334,-2.2355,-2.2361,-2.2463,-2.2369,-2.2374,-2.2377,-2.2379,-2.2651,-2.2655,0,0,0,0,0,0,-2.2188,-2.2198,-2.2318,-2.2321,-2.2225,-2.2266,-2.2272,-2.2304,-2.2329,-2.233,-2.2293,-2.2287,-2.2347,-2.2354,-2.2363,-2.2487,-2.2375,-2.238,-2.2383,-2.2647,-2.2652,-2.2656,0,0,0,0,0,0,-2.2185,-2.22,-2.2315,-2.2259,-2.2272,-2.2273,-2.2309,-2.2307,-2.2327,-2.2334,-2.2333,-2.2314,-2.2344,-2.2355,-2.2434,-2.2489,-2.2382,-2.2388,-2.2643,-2.2649,-2.2654,-2.2739,0,0,0,0,0,0,-2.2181,-2.2199,-2.2239,-2.226,-2.2275,-2.2387,-2.2312,-2.2311,-2.2337,-2.233,-2.2354,-2.2354,-2.2342,-2.2426,-2.2439,-2.2494,-2.2392,-2.2638,-2.2645,-2.2652,-2.2731,-2.2746,-2.276,0,0,0,0,0,-2.2175,-2.2261,-2.2242,-2.2257,-2.2326,-2.239,-2.2398,-2.2384,-2.2342,-2.2382,-2.2387,-2.2353,-2.2481,-2.2435,-2.2449,-2.2507,-2.2634,-2.2643,-2.2652,-2.2724,-2.2743,-2.276,0,0,0,0,0,0,-2.2246,-2.2263,-2.2242,-2.2337,-2.2363,-2.2379,-2.243,-2.2405,-2.2442,-2.2433,-2.2413,-2.2419,-2.2503,-2.2513,-2.2461,-2.261,-2.255,-2.2563,-2.2601,-2.2619,-2.2633,-2.2629,-2.2397,0,0,0,0,0,-2.2273,-2.2324,-2.2336,-2.2418,-2.2432,-2.2429,-2.2456,-2.2443,-2.2468,-2.2478,-2.2488,-2.2513,-2.2559,-2.2589,-2.2632,-2.2732,-2.2736,-2.2779,-2.2793,-2.2805,-2.2816,-2.2869,-2.2888,-2.2685,-2.2685,-2.2685,0,0,-2.2329,-2.2344,-2.2378,-2.2433,-2.2451,-2.2503,-2.2438,-2.2497,-2.2535,-2.2487,-2.2562,-2.257,-2.2597,-2.2687,-2.2727,-2.2698,-2.2872,-2.2816,-2.2825,-2.283,-2.2879,-2.2899,-2.2916,-2.2691,-2.269,-2.2689,0,0,-2.2458,-2.2475,-2.2545,-2.2565,-2.2593,-2.259,-2.2607,-2.2628,-2.2632,-2.2707,-2.2672,-2.2717,-2.2796,-2.2816,-2.2837,-2.2973,-2.2943,-2.2987,-2.3063,-2.3115,-2.3131,-2.3145,-2.3193,-2.321,-2.2998,-2.2998,-2.2998,0,-2.2523,-2.2602,-2.2585,-2.2646,-2.2671,-2.263,-2.27,-2.272,-2.2761,-2.2779,-2.2745,-2.2843,-2.2858,-2.2952,-2.2985,-2.3004,-2.3022,-2.2984,-2.313,-2.3144,-2.3157,-2.3202,-2.322,-2.3003,-2.3002,-2.3002,-2.3001,0,-2.2681,-2.2736,-2.2789,-2.283,-2.2861,-2.2926,-2.2919,-2.2952,-2.2936,-2.2937,-2.3013,-2.303,-2.3075,-2.3096,-2.3081,-2.3188,-2.3169,-2.3133,-2.3073,-2.3181,-2.3224,-2.3241,-2.301,-2.3009,-2.3007,-2.3006,0,0,-2.2856,-2.2886,-2.2906,-2.2924,-2.2952,-2.2994,-2.3057,-2.3101,-2.313,-2.3159,-2.3211,-2.3279,-2.3246,-2.327,-2.3256,-2.3302,-2.3408,-2.326,-2.326,-2.3287,-2.3526,-2.3553,-2.3573,-2.3388,-2.3392,-2.3394,-2.3524,0,-2.2985,-2.3096,-2.3082,-2.3188,-2.3238,-2.3199,-2.3254,-2.3277,-2.3279,-2.3321,-2.3323,-2.3372,-2.3325,-2.3338,-2.3382,-2.3386,-2.3456,-2.3376,-2.3436,-2.3438,-2.343,-2.3595,-2.3624,-2.3745,-2.354,-2.3543,-2.3545,0,-2.315,-2.3186,-2.3297,-2.3316,-2.3337,-2.3387,-2.3426,-2.3467,-2.3492,-2.349,-2.3516,-2.3494,-2.3557,-2.3496,-2.3582,-2.3528,-2.3552,-2.3557,-2.3562,-2.3566,-2.3498,-2.3604,-2.3784,-2.3802,-2.3571,-2.3569,-2.3567,0,-2.3266,-2.3342,-2.3418,-2.3434,-2.3459,-2.3495,-2.3507,-2.3529,-2.3556,-2.359,-2.3607,-2.3648,-2.367,-2.3702,-2.3691,-2.3648,-2.3779,-2.3717,-2.3779,-2.3779,-2.3808,-2.3806,-2.3993,-2.3824,-2.3824,-2.3823,-2.3823,0,-2.3412,-2.3481,-2.347,-2.3517,-2.3593,-2.3577,-2.3652,-2.3659,-2.3678,-2.3725,-2.3694,-2.3739,-2.3722,-2.3765,-2.3757,-2.3829,-2.384,-2.3839,-2.3836,-2.3842,-2.3842,-2.3857,-2.3848,-2.3828,-2.3827,-2.3826,-2.3825,0,-2.3554,-2.355,-2.363,-2.3648,-2.3654,-2.3709,-2.3723,-2.3767,-2.3766,-2.3826,-2.3839,-2.3838,-2.3888,-2.388,-2.3935,-2.3929,-2.4019,-2.4006,-2.4011,-2.4008,-2.4069,-2.4064,-2.4272,-2.4298,-2.4113,-2.4115,-2.4116,0,-2.3647,-2.3699,-2.3722,-2.3752,-2.3767,-2.3814,-2.3842,-2.3827,-2.3857,-2.3889,-2.3929,-2.3975,-2.4012,-2.4092,-2.4096,-2.4138,-2.4125,-2.4195,-2.4131,-2.4135,-2.4125,-2.4122,-2.4127,-2.4208,-2.421,-2.4212,-2.4213,0,-2.3812,-2.3807,-2.3849,-2.389,-2.3924,-2.3955,-2.3983,-2.4009,-2.3997,-2.4032,-2.4082,-2.411,-2.4166,-2.4213,-2.4251,-2.4263,-2.4236,-2.4233,-2.4249,-2.4256,-2.4256,-2.4256,-2.4045,-2.4228,-2.4227,-2.4226,-2.4225,-2.4224,-2.3932,-2.3977,-2.4,-2.4047,-2.4067,-2.4094,-2.4135,-2.414,-2.4182,-2.4227,-2.4215,-2.4272,-2.4294,-2.4344,-2.436,-2.4403,-2.4377,-2.4401,-2.4407,-2.4413,-2.442,-2.425,-2.441,-2.441,-2.4409,-2.4409,-2.4408,0,-2.4095,-2.4108,-2.4151,-2.4192,-2.4229,-2.4201,-2.423,-2.4263,-2.4313,-2.4337,-2.4374,-2.4431,-2.4476,-2.4483,-2.4525,-2.4559,-2.4547,-2.457,-2.4567,-2.457,-2.4441,-2.4422,-2.4579,-2.4579,-2.4579,-2.4579,-2.4578,-2.4578,-2.4184,-2.4258,-2.4256,-2.4339,-2.4351,-2.4407,-2.4426,-2.445,-2.4469,-2.4535,-2.4572,-2.4576,-2.4593,-2.4636,-2.4676,-2.4677,-2.4693,-2.4721,-2.4717,-2.4596,-2.4579,-2.4563,-2.4546,-2.4725,-2.4725,-2.4843,-2.4844,-2.4845]},{"header":{"parameterUnit":"m.s-1","parameterCategory":1,"la1":30.2991,"la2":30.254,"lo1":-89.0895,"lo2":-89.0444,"dy":0.0017,"dx":0.0017,"nx":28,"ny":28,"refTime":"2023-04-26T15:00:00:Z","depth":0,"parameterNumber":3,"parameterNumberName":"V-component_of_WINDS"},"data":[0,0,0,0,0,0,0,0,0,0,0,0,0,0,0,0,0,0,0,0,0,0,0,0,0,0,0,0,0,0,0,0,0,0,0,0,0,0,0,0,0,0,0,0,0,0,0,0,0,0,0,0,0,0,0,0,0,0,-2.6288,-2.6288,0,-2.6273,-2.6273,-2.6273,-2.6218,-2.6217,-2.6216,-2.6215,-2.62,-2.6201,-2.6202,0,0,0,0,0,0,0,0,0,0,0,0,0,-2.6269,-2.627,-2.6288,-2.6288,-2.6287,-2.6273,-2.6273,-2.6273,-2.6219,-2.6217,-2.6216,-2.6214,-2.62,-2.6201,-2.6202,0,0,0,0,0,0,0,0,0,0,0,0,0,-2.6268,-2.627,-2.6288,-2.6259,-2.6256,-2.6273,-2.6273,-2.6272,-2.6219,-2.6217,-2.6215,-2.6214,-2.62,-2.6201,-2.6202,-2.6246,0,0,-2.6205,-2.6206,0,0,0,0,0,0,0,0,-2.6268,-2.6269,-2.6263,-2.6261,-2.6258,-2.6246,-2.6261,-2.6264,-2.6219,-2.6233,-2.6215,-2.6213,-2.6217,-2.6216,-2.6218,-2.6245,-2.6245,-2.6205,-2.6206,-2.6207,-2.6207,0,0,0,0,0,0,0,-2.6268,-2.6269,-2.6282,-2.6263,-2.626,-2.6246,-2.6244,-2.6261,-2.6236,-2.6232,-2.6228,-2.6227,-2.6215,-2.6217,-2.6217,-2.6244,-2.6205,-2.6206,-2.6207,-2.6208,-2.6306,-2.6308,0,0,0,0,0,0,-2.6273,-2.627,-2.6282,-2.6281,-2.6259,-2.6248,-2.6246,-2.6251,-2.6235,-2.6231,-2.6228,-2.6224,-2.6216,-2.6216,-2.6216,-2.6266,-2.6207,-2.6208,-2.6208,-2.6304,-2.6306,-2.6308,0,0,0,0,0,0,-2.6272,-2.6274,-2.6283,-2.6274,-2.6275,-2.625,-2.6257,-2.6252,-2.6254,-2.6233,-2.6228,-2.6235,-2.6214,-2.6215,-2.6239,-2.6265,-2.6208,-2.6209,-2.6302,-2.6305,-2.6307,-2.6366,0,0,0,0,0,0,-2.6272,-2.6275,-2.6291,-2.6275,-2.6275,-2.6306,-2.6259,-2.6253,-2.6256,-2.625,-2.6237,-2.6233,-2.6213,-2.6237,-2.624,-2.6265,-2.621,-2.6299,-2.6303,-2.6306,-2.6362,-2.637,-2.6378,0,0,0,0,0,-2.6272,-2.6309,-2.6292,-2.6294,-2.6295,-2.6307,-2.6307,-2.6283,-2.6258,-2.6274,-2.6261,-2.6234,-2.6261,-2.624,-2.6243,-2.6269,-2.6298,-2.6302,-2.6306,-2.6358,-2.6369,-2.6378,0,0,0,0,0,0,-2.6329,-2.6306,-2.6288,-2.6321,-2.6316,-2.6298,-2.6318,-2.6295,-2.6298,-2.6293,-2.6262,-2.626,-2.6288,-2.6281,-2.6257,-2.631,-2.6275,-2.628,-2.6313,-2.6323,-2.6332,-2.6332,-2.6211,0,0,0,0,0,-2.6345,-2.6357,-2.6336,-2.6367,-2.6366,-2.6343,-2.6347,-2.6328,-2.6323,-2.6321,-2.6308,-2.6304,-2.6311,-2.6317,-2.6323,-2.636,-2.6356,-2.6379,-2.6388,-2.6395,-2.6399,-2.6417,-2.6427,-2.6323,-2.6323,-2.6323,0,0,-2.6379,-2.6368,-2.6377,-2.6378,-2.6373,-2.6385,-2.6341,-2.6357,-2.6365,-2.6323,-2.6344,-2.6336,-2.6329,-2.6359,-2.6372,-2.6354,-2.6427,-2.64,-2.6406,-2.6406,-2.6423,-2.6433,-2.6441,-2.6326,-2.6325,-2.6325,0,0,-2.6447,-2.644,-2.6465,-2.646,-2.6452,-2.6436,-2.6442,-2.6427,-2.6419,-2.644,-2.6408,-2.6419,-2.6432,-2.6428,-2.6428,-2.6494,-2.6469,-2.6497,-2.654,-2.6558,-2.6566,-2.6573,-2.6596,-2.6604,-2.6501,-2.6502,-2.6502,0,-2.649,-2.6508,-2.648,-2.6497,-2.6498,-2.646,-2.6484,-2.6481,-2.6475,-2.6477,-2.6457,-2.6473,-2.6465,-2.6494,-2.651,-2.6511,-2.6517,-2.6498,-2.6567,-2.6574,-2.658,-2.6601,-2.661,-2.6505,-2.6505,-2.6504,-2.6504,0,-2.6561,-2.6573,-2.6594,-2.6589,-2.6592,-2.6613,-2.6589,-2.6595,-2.6576,-2.6562,-2.6584,-2.6574,-2.6576,-2.6582,-2.6564,-2.6608,-2.6597,-2.6572,-2.6537,-2.6594,-2.6613,-2.6621,-2.651,-2.6509,-2.6508,-2.6507,0,0,-2.6664,-2.6643,-2.6651,-2.6648,-2.6636,-2.6645,-2.6664,-2.6666,-2.6672,-2.6669,-2.6684,-2.6696,-2.6673,-2.6673,-2.6654,-2.667,-2.6721,-2.6643,-2.6643,-2.6657,-2.6768,-2.6786,-2.6796,-2.6705,-2.6706,-2.6708,-2.6768,0,-2.6728,-2.6759,-2.6734,-2.6769,-2.6779,-2.6743,-2.6759,-2.6753,-2.6741,-2.6748,-2.6734,-2.6743,-2.6712,-2.6712,-2.6726,-2.6712,-2.6743,-2.6708,-2.6718,-2.6718,-2.672,-2.6806,-2.6825,-2.6883,-2.6776,-2.6777,-2.6778,0,-2.6807,-2.6807,-2.6843,-2.6827,-2.6831,-2.6846,-2.6845,-2.6853,-2.6845,-2.6835,-2.6834,-2.6811,-2.6828,-2.6793,-2.6816,-2.6792,-2.6795,-2.6788,-2.679,-2.6789,-2.6751,-2.6807,-2.6901,-2.6909,-2.679,-2.6789,-2.6788,0,-2.6878,-2.6887,-2.6909,-2.6908,-2.689,-2.6902,-2.6895,-2.6886,-2.6888,-2.6888,-2.6889,-2.6891,-2.6892,-2.6894,-2.6871,-2.6848,-2.6896,-2.686,-2.6888,-2.6888,-2.6899,-2.6899,-2.6994,-2.6903,-2.6902,-2.6902,-2.6902,0,-2.6951,-2.6974,-2.694,-2.6954,-2.6978,-2.695,-2.6975,-2.6965,-2.6957,-2.6967,-2.6936,-2.6947,-2.6917,-2.6925,-2.6907,-2.6928,-2.6929,-2.6921,-2.6915,-2.6923,-2.6924,-2.6924,-2.6919,-2.6904,-2.6904,-2.6904,-2.6903,0,-2.7034,-2.7013,-2.7034,-2.7016,-2.7012,-2.7031,-2.7015,-2.7026,-2.7012,-2.7026,-2.7027,-2.7004,-2.7011,-2.6989,-2.6993,-2.6981,-2.7011,-2.7,-2.7014,-2.701,-2.7038,-2.7036,-2.7136,-2.7148,-2.705,-2.7051,-2.7052,0,-2.7082,-2.7099,-2.7082,-2.7087,-2.7081,-2.709,-2.7092,-2.7065,-2.7068,-2.706,-2.7073,-2.7077,-2.7079,-2.7093,-2.7076,-2.7079,-2.7067,-2.7102,-2.7067,-2.7074,-2.7066,-2.7065,-2.7066,-2.7109,-2.711,-2.7111,-2.7112,0,-2.7169,-2.7157,-2.7161,-2.7161,-2.7165,-2.7164,-2.7161,-2.7166,-2.7137,-2.7143,-2.7149,-2.7151,-2.7154,-2.7159,-2.7158,-2.7151,-2.7127,-2.7123,-2.713,-2.7137,-2.7144,-2.7139,-2.7032,-2.7121,-2.712,-2.7119,-2.7119,-2.7119,-2.7235,-2.7248,-2.7237,-2.7243,-2.7237,-2.7235,-2.7245,-2.7231,-2.7236,-2.7236,-2.722,-2.723,-2.7221,-2.7217,-2.7213,-2.722,-2.7204,-2.7213,-2.7215,-2.7218,-2.7222,-2.7143,-2.722,-2.7219,-2.7219,-2.7219,-2.7219,0,-2.7319,-2.7311,-2.7316,-2.7312,-2.7316,-2.7293,-2.7288,-2.7293,-2.7302,-2.7296,-2.7298,-2.7305,-2.731,-2.7293,-2.7295,-2.7304,-2.7293,-2.7305,-2.7304,-2.7303,-2.7237,-2.7231,-2.7314,-2.7314,-2.7314,-2.7314,-2.7314,-2.7314,-2.7364,-2.7383,-2.737,-2.7387,-2.7378,-2.7387,-2.7386,-2.7384,-2.7378,-2.7388,-2.7391,-2.738,-2.737,-2.7371,-2.7373,-2.7368,-2.737,-2.7386,-2.7378,-2.7317,-2.7307,-2.7298,-2.7292,-2.7387,-2.7387,-2.7442,-2.7443,-2.7443]}]]